#datetime,building,power
2022-12-10T00:00:00,axn,29.13
2022-12-10T00:01:00,axn,43.58
2022-12-10T00:02:00,axn,43.17
2022-12-10T00:03:00,axn,42.58
2022-12-10T00:04:00,axn,42.80
2022-12-10T00:05:00,axn,42.63
2022-12-10T00:06:00,axn,28.19
2022-12-10T00:07:00,axn,28.59
2022-12-10T00:08:00,axn,27.62
2022-12-10T00:09:00,axn,27.93
2022-12-10T00:10:00,axn,27.53
2022-12-10T00:11:00,axn,27.45
2022-12-10T00:12:00,axn,27.58
2022-12-10T00:13:00,axn,44.09
2022-12-10T00:14:00,axn,27.56
2022-12-10T00:15:00,axn,28.06
2022-12-10T00:16:00,axn,28.24
2022-12-10T00:17:00,axn,28.13
2022-12-10T00:18:00,axn,28.92
2022-12-10T00:19:00,axn,28.26
2022-12-10T00:20:00,axn,28.65
2022-12-10T00:21:00,axn,28.20
2022-12-10T00:22:00,axn,28.70
2022-12-10T00:23:00,axn,27.43
2022-12-10T00:24:00,axn,28.50
2022-12-10T00:25:00,axn,28.35
2022-12-10T00:26:00,axn,28.55
2022-12-10T00:27:00,axn,27.96
2022-12-10T00:28:00,axn,28.55
2022-12-10T00:29:00,axn,30.78
2022-12-10T00:30:00,axn,30.83
2022-12-10T00:31:00,axn,29.22
2022-12-10T00:32:00,axn,27.35
2022-12-10T00:33:00,axn,27.38
2022-12-10T00:34:00,axn,27.36
2022-12-10T00:35:00,axn,27.14
2022-12-10T00:36:00,axn,27.59
2022-12-10T00:37:00,axn,28.07
2022-12-10T00:38:00,axn,27.61
2022-12-10T00:39:00,axn,27.80
2022-12-10T00:40:00,axn,27.57
2022-12-10T00:41:00,axn,27.39
2022-12-10T00:42:00,axn,27.38
2022-12-10T00:43:00,axn,28.08
2022-12-10T00:44:00,axn,27.68
2022-12-10T00:45:00,axn,27.69
2022-12-10T00:46:00,axn,28.00
2022-12-10T00:47:00,axn,27.66
2022-12-10T00:48:00,axn,27.39
2022-12-10T00:49:00,axn,27.65
2022-12-10T00:50:00,axn,27.69
2022-12-10T00:51:00,axn,28.02
2022-12-10T00:52:00,axn,28.01
2022-12-10T00:53:00,axn,27.71
2022-12-10T00:54:00,axn,27.62
2022-12-10T00:55:00,axn,27.47
2022-12-10T00:56:00,axn,27.42
2022-12-10T00:57:00,axn,27.78
2022-12-10T00:58:00,axn,28.05
2022-12-10T00:59:00,axn,27.56
2022-12-10T01:00:00,axn,27.63
2022-12-10T01:01:00,axn,27.68
2022-12-10T01:02:00,axn,27.86
2022-12-10T01:03:00,axn,27.83
2022-12-10T01:04:00,axn,27.73
2022-12-10T01:05:00,axn,28.05
2022-12-10T01:06:00,axn,27.73
2022-12-10T01:07:00,axn,27.67
2022-12-10T01:08:00,axn,27.39
2022-12-10T01:09:00,axn,27.47
2022-12-10T01:10:00,axn,27.64
2022-12-10T01:11:00,axn,27.34
2022-12-10T01:12:00,axn,27.38
2022-12-10T01:13:00,axn,27.48
2022-12-10T01:14:00,axn,27.44
2022-12-10T01:15:00,axn,27.54
2022-12-10T01:16:00,axn,28.64
2022-12-10T01:17:00,axn,30.03
2022-12-10T01:18:00,axn,29.45
2022-12-10T01:19:00,axn,29.06
2022-12-10T01:20:00,axn,29.46
2022-12-10T01:21:00,axn,28.97
2022-12-10T01:22:00,axn,28.78
2022-12-10T01:23:00,axn,28.94
2022-12-10T01:24:00,axn,29.15
2022-12-10T01:25:00,axn,29.17
2022-12-10T01:26:00,axn,29.05
2022-12-10T01:27:00,axn,29.14
2022-12-10T01:28:00,axn,29.15
2022-12-10T01:29:00,axn,29.45
2022-12-10T01:30:00,axn,29.48
2022-12-10T01:31:00,axn,29.05
2022-12-10T01:32:00,axn,29.58
2022-12-10T01:33:00,axn,29.23
2022-12-10T01:34:00,axn,28.99
2022-12-10T01:35:00,axn,28.98
2022-12-10T01:36:00,axn,29.04
2022-12-10T01:37:00,axn,29.15
2022-12-10T01:38:00,axn,27.86
2022-12-10T01:39:00,axn,27.64
2022-12-10T01:40:00,axn,27.63
2022-12-10T01:41:00,axn,27.49
2022-12-10T01:42:00,axn,27.39
2022-12-10T01:43:00,axn,27.29
2022-12-10T01:44:00,axn,27.59
2022-12-10T01:45:00,axn,27.38
2022-12-10T01:46:00,axn,27.44
2022-12-10T01:47:00,axn,27.87
2022-12-10T01:48:00,axn,27.12
2022-12-10T01:49:00,axn,27.66
2022-12-10T01:50:00,axn,27.61
2022-12-10T01:51:00,axn,27.77
2022-12-10T01:52:00,axn,27.84
2022-12-10T01:53:00,axn,27.61
2022-12-10T01:54:00,axn,27.47
2022-12-10T01:55:00,axn,27.61
2022-12-10T01:56:00,axn,27.68
2022-12-10T01:57:00,axn,27.52
2022-12-10T01:58:00,axn,27.77
2022-12-10T01:59:00,axn,27.86
2022-12-10T02:00:00,axn,27.97
2022-12-10T02:01:00,axn,27.76
2022-12-10T02:02:00,axn,27.73
2022-12-10T02:03:00,axn,38.37
2022-12-10T02:04:00,axn,38.13
2022-12-10T02:05:00,axn,38.18
2022-12-10T02:06:00,axn,38.00
2022-12-10T02:07:00,axn,38.02
2022-12-10T02:08:00,axn,28.12
2022-12-10T02:09:00,axn,27.65
2022-12-10T02:10:00,axn,27.81
2022-12-10T02:11:00,axn,27.54
2022-12-10T02:12:00,axn,27.71
2022-12-10T02:13:00,axn,28.24
2022-12-10T02:14:00,axn,27.89
2022-12-10T02:15:00,axn,27.89
2022-12-10T02:16:00,axn,27.83
2022-12-10T02:17:00,axn,27.89
2022-12-10T02:18:00,axn,27.88
2022-12-10T02:19:00,axn,28.27
2022-12-10T02:20:00,axn,27.91
2022-12-10T02:21:00,axn,28.10
2022-12-10T02:22:00,axn,27.96
2022-12-10T02:23:00,axn,27.98
2022-12-10T02:24:00,axn,28.09
2022-12-10T02:25:00,axn,28.09
2022-12-10T02:26:00,axn,27.97
2022-12-10T02:27:00,axn,27.71
2022-12-10T02:28:00,axn,27.91
2022-12-10T02:29:00,axn,27.73
2022-12-10T02:30:00,axn,27.77
2022-12-10T02:31:00,axn,27.78
2022-12-10T02:32:00,axn,27.73
2022-12-10T02:33:00,axn,27.64
2022-12-10T02:34:00,axn,27.77
2022-12-10T02:35:00,axn,27.67
2022-12-10T02:36:00,axn,28.03
2022-12-10T02:37:00,axn,28.23
2022-12-10T02:38:00,axn,28.15
2022-12-10T02:39:00,axn,28.28
2022-12-10T02:40:00,axn,28.02
2022-12-10T02:41:00,axn,27.96
2022-12-10T02:42:00,axn,30.91
2022-12-10T02:43:00,axn,47.08
2022-12-10T02:44:00,axn,33.41
2022-12-10T02:45:00,axn,28.05
2022-12-10T02:46:00,axn,27.77
2022-12-10T02:47:00,axn,27.83
2022-12-10T02:48:00,axn,27.74
2022-12-10T02:49:00,axn,27.83
2022-12-10T02:50:00,axn,28.15
2022-12-10T02:51:00,axn,27.80
2022-12-10T02:52:00,axn,27.70
2022-12-10T02:53:00,axn,27.78
2022-12-10T02:54:00,axn,27.63
2022-12-10T02:55:00,axn,27.45
2022-12-10T02:56:00,axn,27.98
2022-12-10T02:57:00,axn,27.53
2022-12-10T02:58:00,axn,28.07
2022-12-10T02:59:00,axn,27.75
2022-12-10T03:00:00,axn,27.63
2022-12-10T03:01:00,axn,27.72
2022-12-10T03:02:00,axn,27.78
2022-12-10T03:03:00,axn,27.74
2022-12-10T03:04:00,axn,27.56
2022-12-10T03:05:00,axn,28.38
2022-12-10T03:06:00,axn,27.65
2022-12-10T03:07:00,axn,27.81
2022-12-10T03:08:00,axn,27.62
2022-12-10T03:09:00,axn,27.52
2022-12-10T03:10:00,axn,27.92
2022-12-10T03:11:00,axn,28.22
2022-12-10T03:12:00,axn,28.20
2022-12-10T03:13:00,axn,28.12
2022-12-10T03:14:00,axn,27.95
2022-12-10T03:15:00,axn,28.00
2022-12-10T03:16:00,axn,28.13
2022-12-10T03:17:00,axn,28.07
2022-12-10T03:18:00,axn,28.13
2022-12-10T03:19:00,axn,27.87
2022-12-10T03:20:00,axn,28.04
2022-12-10T03:21:00,axn,28.16
2022-12-10T03:22:00,axn,28.22
2022-12-10T03:23:00,axn,28.28
2022-12-10T03:24:00,axn,28.39
2022-12-10T03:25:00,axn,28.24
2022-12-10T03:26:00,axn,28.20
2022-12-10T03:27:00,axn,28.22
2022-12-10T03:28:00,axn,28.29
2022-12-10T03:29:00,axn,28.28
2022-12-10T03:30:00,axn,28.07
2022-12-10T03:31:00,axn,28.23
2022-12-10T03:32:00,axn,28.29
2022-12-10T03:33:00,axn,28.32
2022-12-10T03:34:00,axn,28.13
2022-12-10T03:35:00,axn,28.34
2022-12-10T03:36:00,axn,28.23
2022-12-10T03:37:00,axn,28.25
2022-12-10T03:38:00,axn,28.11
2022-12-10T03:39:00,axn,28.29
2022-12-10T03:40:00,axn,28.34
2022-12-10T03:41:00,axn,33.77
2022-12-10T03:42:00,axn,33.69
2022-12-10T03:43:00,axn,33.50
2022-12-10T03:44:00,axn,27.73
2022-12-10T03:45:00,axn,27.55
2022-12-10T03:46:00,axn,27.50
2022-12-10T03:47:00,axn,27.56
2022-12-10T03:48:00,axn,27.80
2022-12-10T03:49:00,axn,27.84
2022-12-10T03:50:00,axn,27.72
2022-12-10T03:51:00,axn,27.68
2022-12-10T03:52:00,axn,27.99
2022-12-10T03:53:00,axn,27.85
2022-12-10T03:54:00,axn,27.79
2022-12-10T03:55:00,axn,28.24
2022-12-10T03:56:00,axn,27.90
2022-12-10T03:57:00,axn,27.69
2022-12-10T03:58:00,axn,27.49
2022-12-10T03:59:00,axn,28.32
2022-12-10T04:00:00,axn,27.89
2022-12-10T04:01:00,axn,27.73
2022-12-10T04:02:00,axn,27.82
2022-12-10T04:03:00,axn,28.01
2022-12-10T04:04:00,axn,28.07
2022-12-10T04:05:00,axn,28.14
2022-12-10T04:06:00,axn,28.37
2022-12-10T04:07:00,axn,28.64
2022-12-10T04:08:00,axn,28.10
2022-12-10T04:09:00,axn,28.00
2022-12-10T04:10:00,axn,28.29
2022-12-10T04:11:00,axn,27.88
2022-12-10T04:12:00,axn,27.75
2022-12-10T04:13:00,axn,27.75
2022-12-10T04:14:00,axn,27.63
2022-12-10T04:15:00,axn,27.76
2022-12-10T04:16:00,axn,27.81
2022-12-10T04:17:00,axn,27.72
2022-12-10T04:18:00,axn,27.64
2022-12-10T04:19:00,axn,27.68
2022-12-10T04:20:00,axn,27.56
2022-12-10T04:21:00,axn,27.47
2022-12-10T04:22:00,axn,27.73
2022-12-10T04:23:00,axn,28.11
2022-12-10T04:24:00,axn,39.00
2022-12-10T04:25:00,axn,28.05
2022-12-10T04:26:00,axn,28.11
2022-12-10T04:27:00,axn,27.87
2022-12-10T04:28:00,axn,27.97
2022-12-10T04:29:00,axn,27.62
2022-12-10T04:30:00,axn,27.58
2022-12-10T04:31:00,axn,27.81
2022-12-10T04:32:00,axn,32.51
2022-12-10T04:33:00,axn,32.14
2022-12-10T04:34:00,axn,32.21
2022-12-10T04:35:00,axn,27.90
2022-12-10T04:36:00,axn,27.54
2022-12-10T04:37:00,axn,27.74
2022-12-10T04:38:00,axn,27.62
2022-12-10T04:39:00,axn,27.49
2022-12-10T04:40:00,axn,27.89
2022-12-10T04:41:00,axn,27.78
2022-12-10T04:42:00,axn,27.51
2022-12-10T04:43:00,axn,27.59
2022-12-10T04:44:00,axn,27.55
2022-12-10T04:45:00,axn,27.39
2022-12-10T04:46:00,axn,27.56
2022-12-10T04:47:00,axn,27.38
2022-12-10T04:48:00,axn,28.59
2022-12-10T04:49:00,axn,28.57
2022-12-10T04:50:00,axn,27.98
2022-12-10T04:51:00,axn,28.26
2022-12-10T04:52:00,axn,28.09
2022-12-10T04:53:00,axn,27.92
2022-12-10T04:54:00,axn,27.77
2022-12-10T04:55:00,axn,27.84
2022-12-10T04:56:00,axn,27.53
2022-12-10T04:57:00,axn,27.39
2022-12-10T04:58:00,axn,26.81
2022-12-10T04:59:00,axn,26.50
2022-12-10T05:00:00,axn,41.34
2022-12-10T05:01:00,axn,43.65
2022-12-10T05:02:00,axn,44.82
2022-12-10T05:03:00,axn,45.68
2022-12-10T05:04:00,axn,45.83
2022-12-10T05:05:00,axn,45.81
2022-12-10T05:06:00,axn,31.30
2022-12-10T05:07:00,axn,31.11
2022-12-10T05:08:00,axn,31.06
2022-12-10T05:09:00,axn,34.06
2022-12-10T05:10:00,axn,33.82
2022-12-10T05:11:00,axn,31.35
2022-12-10T05:12:00,axn,31.39
2022-12-10T05:13:00,axn,31.41
2022-12-10T05:14:00,axn,31.02
2022-12-10T05:15:00,axn,30.86
2022-12-10T05:16:00,axn,31.62
2022-12-10T05:17:00,axn,31.96
2022-12-10T05:18:00,axn,31.15
2022-12-10T05:19:00,axn,30.80
2022-12-10T05:20:00,axn,31.04
2022-12-10T05:21:00,axn,30.95
2022-12-10T05:22:00,axn,30.96
2022-12-10T05:23:00,axn,30.78
2022-12-10T05:24:00,axn,30.96
2022-12-10T05:25:00,axn,31.05
2022-12-10T05:26:00,axn,30.70
2022-12-10T05:27:00,axn,30.71
2022-12-10T05:28:00,axn,31.12
2022-12-10T05:29:00,axn,42.00
2022-12-10T05:30:00,axn,41.29
2022-12-10T05:31:00,axn,41.22
2022-12-10T05:32:00,axn,40.89
2022-12-10T05:33:00,axn,30.81
2022-12-10T05:34:00,axn,30.47
2022-12-10T05:35:00,axn,31.02
2022-12-10T05:36:00,axn,30.80
2022-12-10T05:37:00,axn,31.36
2022-12-10T05:38:00,axn,33.34
2022-12-10T05:39:00,axn,33.24
2022-12-10T05:40:00,axn,34.02
2022-12-10T05:41:00,axn,31.82
2022-12-10T05:42:00,axn,31.06
2022-12-10T05:43:00,axn,31.07
2022-12-10T05:44:00,axn,31.07
2022-12-10T05:45:00,axn,31.03
2022-12-10T05:46:00,axn,30.85
2022-12-10T05:47:00,axn,30.75
2022-12-10T05:48:00,axn,31.05
2022-12-10T05:49:00,axn,31.39
2022-12-10T05:50:00,axn,31.49
2022-12-10T05:51:00,axn,31.01
2022-12-10T05:52:00,axn,31.60
2022-12-10T05:53:00,axn,31.53
2022-12-10T05:54:00,axn,31.09
2022-12-10T05:55:00,axn,31.17
2022-12-10T05:56:00,axn,31.26
2022-12-10T05:57:00,axn,31.39
2022-12-10T05:58:00,axn,30.97
2022-12-10T05:59:00,axn,30.69
2022-12-10T06:00:00,axn,31.22
2022-12-10T06:01:00,axn,30.91
2022-12-10T06:02:00,axn,31.24
2022-12-10T06:03:00,axn,31.10
2022-12-10T06:04:00,axn,31.10
2022-12-10T06:05:00,axn,31.03
2022-12-10T06:06:00,axn,30.95
2022-12-10T06:07:00,axn,30.98
2022-12-10T06:08:00,axn,30.96
2022-12-10T06:09:00,axn,30.68
2022-12-10T06:10:00,axn,30.88
2022-12-10T06:11:00,axn,30.94
2022-12-10T06:12:00,axn,31.39
2022-12-10T06:13:00,axn,30.98
2022-12-10T06:14:00,axn,36.62
2022-12-10T06:15:00,axn,36.37
2022-12-10T06:16:00,axn,36.65
2022-12-10T06:17:00,axn,30.72
2022-12-10T06:18:00,axn,30.79
2022-12-10T06:19:00,axn,30.42
2022-12-10T06:20:00,axn,30.54
2022-12-10T06:21:00,axn,30.29
2022-12-10T06:22:00,axn,31.05
2022-12-10T06:23:00,axn,30.22
2022-12-10T06:24:00,axn,30.52
2022-12-10T06:25:00,axn,30.48
2022-12-10T06:26:00,axn,30.31
2022-12-10T06:27:00,axn,30.30
2022-12-10T06:28:00,axn,31.22
2022-12-10T06:29:00,axn,30.74
2022-12-10T06:30:00,axn,30.32
2022-12-10T06:31:00,axn,29.74
2022-12-10T06:32:00,axn,29.99
2022-12-10T06:33:00,axn,29.78
2022-12-10T06:34:00,axn,29.78
2022-12-10T06:35:00,axn,29.79
2022-12-10T06:36:00,axn,29.91
2022-12-10T06:37:00,axn,29.91
2022-12-10T06:38:00,axn,30.05
2022-12-10T06:39:00,axn,30.10
2022-12-10T06:40:00,axn,30.49
2022-12-10T06:41:00,axn,30.36
2022-12-10T06:42:00,axn,30.19
2022-12-10T06:43:00,axn,30.08
2022-12-10T06:44:00,axn,30.11
2022-12-10T06:45:00,axn,30.14
2022-12-10T06:46:00,axn,30.02
2022-12-10T06:47:00,axn,29.77
2022-12-10T06:48:00,axn,29.75
2022-12-10T06:49:00,axn,29.86
2022-12-10T06:50:00,axn,29.78
2022-12-10T06:51:00,axn,29.75
2022-12-10T06:52:00,axn,29.78
2022-12-10T06:53:00,axn,29.54
2022-12-10T06:54:00,axn,29.32
2022-12-10T06:55:00,axn,32.17
2022-12-10T06:56:00,axn,32.30
2022-12-10T06:57:00,axn,29.52
2022-12-10T06:58:00,axn,29.29
2022-12-10T06:59:00,axn,29.35
2022-12-10T07:00:00,axn,29.34
2022-12-10T07:01:00,axn,33.23
2022-12-10T07:02:00,axn,34.16
2022-12-10T07:03:00,axn,33.66
2022-12-10T07:04:00,axn,34.67
2022-12-10T07:05:00,axn,34.77
2022-12-10T07:06:00,axn,34.67
2022-12-10T07:07:00,axn,34.28
2022-12-10T07:08:00,axn,33.45
2022-12-10T07:09:00,axn,34.03
2022-12-10T07:10:00,axn,34.18
2022-12-10T07:11:00,axn,34.25
2022-12-10T07:12:00,axn,34.25
2022-12-10T07:13:00,axn,34.55
2022-12-10T07:14:00,axn,34.63
2022-12-10T07:15:00,axn,34.83
2022-12-10T07:16:00,axn,35.02
2022-12-10T07:17:00,axn,34.65
2022-12-10T07:18:00,axn,34.40
2022-12-10T07:19:00,axn,34.70
2022-12-10T07:20:00,axn,34.87
2022-12-10T07:21:00,axn,34.63
2022-12-10T07:22:00,axn,34.69
2022-12-10T07:23:00,axn,34.43
2022-12-10T07:24:00,axn,34.37
2022-12-10T07:25:00,axn,34.34
2022-12-10T07:26:00,axn,34.41
2022-12-10T07:27:00,axn,34.52
2022-12-10T07:28:00,axn,34.84
2022-12-10T07:29:00,axn,34.90
2022-12-10T07:30:00,axn,34.24
2022-12-10T07:31:00,axn,34.25
2022-12-10T07:32:00,axn,34.10
2022-12-10T07:33:00,axn,34.02
2022-12-10T07:34:00,axn,34.36
2022-12-10T07:35:00,axn,33.75
2022-12-10T07:36:00,axn,33.89
2022-12-10T07:37:00,axn,34.01
2022-12-10T07:38:00,axn,34.23
2022-12-10T07:39:00,axn,34.13
2022-12-10T07:40:00,axn,34.35
2022-12-10T07:41:00,axn,34.45
2022-12-10T07:42:00,axn,34.27
2022-12-10T07:43:00,axn,34.09
2022-12-10T07:44:00,axn,34.01
2022-12-10T07:45:00,axn,34.09
2022-12-10T07:46:00,axn,34.36
2022-12-10T07:47:00,axn,34.23
2022-12-10T07:48:00,axn,34.61
2022-12-10T07:49:00,axn,34.49
2022-12-10T07:50:00,axn,34.21
2022-12-10T07:51:00,axn,35.02
2022-12-10T07:52:00,axn,34.33
2022-12-10T07:53:00,axn,34.54
2022-12-10T07:54:00,axn,34.48
2022-12-10T07:55:00,axn,34.19
2022-12-10T07:56:00,axn,34.33
2022-12-10T07:57:00,axn,33.98
2022-12-10T07:58:00,axn,33.99
2022-12-10T07:59:00,axn,34.09
2022-12-10T08:00:00,axn,34.49
2022-12-10T08:01:00,axn,34.21
2022-12-10T08:02:00,axn,34.47
2022-12-10T08:03:00,axn,34.19
2022-12-10T08:04:00,axn,34.30
2022-12-10T08:05:00,axn,37.07
2022-12-10T08:06:00,axn,36.93
2022-12-10T08:07:00,axn,36.77
2022-12-10T08:08:00,axn,36.85
2022-12-10T08:09:00,axn,34.32
2022-12-10T08:10:00,axn,34.09
2022-12-10T08:11:00,axn,34.03
2022-12-10T08:12:00,axn,34.03
2022-12-10T08:13:00,axn,34.20
2022-12-10T08:14:00,axn,34.24
2022-12-10T08:15:00,axn,34.36
2022-12-10T08:16:00,axn,34.59
2022-12-10T08:17:00,axn,34.51
2022-12-10T08:18:00,axn,34.27
2022-12-10T08:19:00,axn,34.42
2022-12-10T08:20:00,axn,34.50
2022-12-10T08:21:00,axn,34.36
2022-12-10T08:22:00,axn,34.93
2022-12-10T08:23:00,axn,35.28
2022-12-10T08:24:00,axn,35.17
2022-12-10T08:25:00,axn,34.92
2022-12-10T08:26:00,axn,34.96
2022-12-10T08:27:00,axn,34.61
2022-12-10T08:28:00,axn,34.66
2022-12-10T08:29:00,axn,34.52
2022-12-10T08:30:00,axn,34.67
2022-12-10T08:31:00,axn,34.53
2022-12-10T08:32:00,axn,34.75
2022-12-10T08:33:00,axn,34.45
2022-12-10T08:34:00,axn,34.49
2022-12-10T08:35:00,axn,34.76
2022-12-10T08:36:00,axn,35.01
2022-12-10T08:37:00,axn,34.80
2022-12-10T08:38:00,axn,34.86
2022-12-10T08:39:00,axn,34.60
2022-12-10T08:40:00,axn,34.72
2022-12-10T08:41:00,axn,35.86
2022-12-10T08:42:00,axn,35.62
2022-12-10T08:43:00,axn,46.41
2022-12-10T08:44:00,axn,45.80
2022-12-10T08:45:00,axn,46.02
2022-12-10T08:46:00,axn,45.29
2022-12-10T08:47:00,axn,35.38
2022-12-10T08:48:00,axn,35.58
2022-12-10T08:49:00,axn,35.76
2022-12-10T08:50:00,axn,35.55
2022-12-10T08:51:00,axn,35.54
2022-12-10T08:52:00,axn,35.54
2022-12-10T08:53:00,axn,36.77
2022-12-10T08:54:00,axn,35.56
2022-12-10T08:55:00,axn,35.43
2022-12-10T08:56:00,axn,35.18
2022-12-10T08:57:00,axn,35.19
2022-12-10T08:58:00,axn,35.08
2022-12-10T08:59:00,axn,35.47
2022-12-10T09:00:00,axn,35.23
2022-12-10T09:01:00,axn,35.11
2022-12-10T09:02:00,axn,35.11
2022-12-10T09:03:00,axn,34.87
2022-12-10T09:04:00,axn,35.50
2022-12-10T09:05:00,axn,35.02
2022-12-10T09:06:00,axn,34.97
2022-12-10T09:07:00,axn,34.70
2022-12-10T09:08:00,axn,34.71
2022-12-10T09:09:00,axn,34.64
2022-12-10T09:10:00,axn,34.85
2022-12-10T09:11:00,axn,34.21
2022-12-10T09:12:00,axn,34.39
2022-12-10T09:13:00,axn,34.72
2022-12-10T09:14:00,axn,34.58
2022-12-10T09:15:00,axn,34.49
2022-12-10T09:16:00,axn,35.37
2022-12-10T09:17:00,axn,34.96
2022-12-10T09:18:00,axn,34.73
2022-12-10T09:19:00,axn,34.71
2022-12-10T09:20:00,axn,34.77
2022-12-10T09:21:00,axn,40.09
2022-12-10T09:22:00,axn,35.11
2022-12-10T09:23:00,axn,35.38
2022-12-10T09:24:00,axn,35.17
2022-12-10T09:25:00,axn,35.25
2022-12-10T09:26:00,axn,35.06
2022-12-10T09:27:00,axn,34.92
2022-12-10T09:28:00,axn,35.21
2022-12-10T09:29:00,axn,38.14
2022-12-10T09:30:00,axn,38.04
2022-12-10T09:31:00,axn,34.91
2022-12-10T09:32:00,axn,34.94
2022-12-10T09:33:00,axn,34.68
2022-12-10T09:34:00,axn,34.63
2022-12-10T09:35:00,axn,34.50
2022-12-10T09:36:00,axn,34.59
2022-12-10T09:37:00,axn,34.98
2022-12-10T09:38:00,axn,34.79
2022-12-10T09:39:00,axn,34.77
2022-12-10T09:40:00,axn,34.85
2022-12-10T09:41:00,axn,34.99
2022-12-10T09:42:00,axn,35.09
2022-12-10T09:43:00,axn,35.31
2022-12-10T09:44:00,axn,34.70
2022-12-10T09:45:00,axn,34.67
2022-12-10T09:46:00,axn,35.12
2022-12-10T09:47:00,axn,35.11
2022-12-10T09:48:00,axn,34.77
2022-12-10T09:49:00,axn,35.28
2022-12-10T09:50:00,axn,34.64
2022-12-10T09:51:00,axn,35.43
2022-12-10T09:52:00,axn,35.07
2022-12-10T09:53:00,axn,34.93
2022-12-10T09:54:00,axn,34.55
2022-12-10T09:55:00,axn,34.88
2022-12-10T09:56:00,axn,34.48
2022-12-10T09:57:00,axn,35.39
2022-12-10T09:58:00,axn,34.53
2022-12-10T09:59:00,axn,34.74
2022-12-10T10:00:00,axn,34.80
2022-12-10T10:01:00,axn,35.70
2022-12-10T10:02:00,axn,35.07
2022-12-10T10:03:00,axn,35.36
2022-12-10T10:04:00,axn,35.22
2022-12-10T10:05:00,axn,39.63
2022-12-10T10:06:00,axn,39.18
2022-12-10T10:07:00,axn,39.22
2022-12-10T10:08:00,axn,34.68
2022-12-10T10:09:00,axn,34.86
2022-12-10T10:10:00,axn,34.98
2022-12-10T10:11:00,axn,35.15
2022-12-10T10:12:00,axn,34.76
2022-12-10T10:13:00,axn,35.66
2022-12-10T10:14:00,axn,34.52
2022-12-10T10:15:00,axn,34.36
2022-12-10T10:16:00,axn,34.85
2022-12-10T10:17:00,axn,34.92
2022-12-10T10:18:00,axn,34.95
2022-12-10T10:19:00,axn,34.39
2022-12-10T10:20:00,axn,34.65
2022-12-10T10:21:00,axn,34.79
2022-12-10T10:22:00,axn,34.60
2022-12-10T10:23:00,axn,34.97
2022-12-10T10:24:00,axn,34.78
2022-12-10T10:25:00,axn,34.85
2022-12-10T10:26:00,axn,34.95
2022-12-10T10:27:00,axn,34.80
2022-12-10T10:28:00,axn,35.25
2022-12-10T10:29:00,axn,35.33
2022-12-10T10:30:00,axn,35.16
2022-12-10T10:31:00,axn,34.94
2022-12-10T10:32:00,axn,34.84
2022-12-10T10:33:00,axn,34.70
2022-12-10T10:34:00,axn,34.90
2022-12-10T10:35:00,axn,35.14
2022-12-10T10:36:00,axn,35.26
2022-12-10T10:37:00,axn,35.09
2022-12-10T10:38:00,axn,35.01
2022-12-10T10:39:00,axn,34.80
2022-12-10T10:40:00,axn,35.09
2022-12-10T10:41:00,axn,35.59
2022-12-10T10:42:00,axn,35.01
2022-12-10T10:43:00,axn,34.81
2022-12-10T10:44:00,axn,34.87
2022-12-10T10:45:00,axn,35.12
2022-12-10T10:46:00,axn,35.51
2022-12-10T10:47:00,axn,35.18
2022-12-10T10:48:00,axn,34.97
2022-12-10T10:49:00,axn,35.09
2022-12-10T10:50:00,axn,35.03
2022-12-10T10:51:00,axn,35.27
2022-12-10T10:52:00,axn,36.01
2022-12-10T10:53:00,axn,35.92
2022-12-10T10:54:00,axn,35.72
2022-12-10T10:55:00,axn,35.29
2022-12-10T10:56:00,axn,35.71
2022-12-10T10:57:00,axn,35.54
2022-12-10T10:58:00,axn,50.11
2022-12-10T10:59:00,axn,49.75
2022-12-10T11:00:00,axn,50.17
2022-12-10T11:01:00,axn,49.64
2022-12-10T11:02:00,axn,49.35
2022-12-10T11:03:00,axn,49.22
2022-12-10T11:04:00,axn,35.56
2022-12-10T11:05:00,axn,37.24
2022-12-10T11:06:00,axn,36.33
2022-12-10T11:07:00,axn,36.28
2022-12-10T11:08:00,axn,40.80
2022-12-10T11:09:00,axn,41.08
2022-12-10T11:10:00,axn,40.52
2022-12-10T11:11:00,axn,40.86
2022-12-10T11:12:00,axn,38.13
2022-12-10T11:13:00,axn,38.72
2022-12-10T11:14:00,axn,38.49
2022-12-10T11:15:00,axn,38.83
2022-12-10T11:16:00,axn,39.32
2022-12-10T11:17:00,axn,39.37
2022-12-10T11:18:00,axn,39.04
2022-12-10T11:19:00,axn,38.74
2022-12-10T11:20:00,axn,39.03
2022-12-10T11:21:00,axn,38.69
2022-12-10T11:22:00,axn,38.67
2022-12-10T11:23:00,axn,38.64
2022-12-10T11:24:00,axn,38.34
2022-12-10T11:25:00,axn,38.46
2022-12-10T11:26:00,axn,38.21
2022-12-10T11:27:00,axn,38.54
2022-12-10T11:28:00,axn,39.01
2022-12-10T11:29:00,axn,39.64
2022-12-10T11:30:00,axn,38.98
2022-12-10T11:31:00,axn,39.18
2022-12-10T11:32:00,axn,39.05
2022-12-10T11:33:00,axn,39.29
2022-12-10T11:34:00,axn,39.03
2022-12-10T11:35:00,axn,42.62
2022-12-10T11:36:00,axn,41.90
2022-12-10T11:37:00,axn,39.20
2022-12-10T11:38:00,axn,39.34
2022-12-10T11:39:00,axn,38.93
2022-12-10T11:40:00,axn,39.21
2022-12-10T11:41:00,axn,39.54
2022-12-10T11:42:00,axn,39.07
2022-12-10T11:43:00,axn,39.29
2022-12-10T11:44:00,axn,39.07
2022-12-10T11:45:00,axn,38.85
2022-12-10T11:46:00,axn,39.04
2022-12-10T11:47:00,axn,38.72
2022-12-10T11:48:00,axn,39.13
2022-12-10T11:49:00,axn,40.31
2022-12-10T11:50:00,axn,39.96
2022-12-10T11:51:00,axn,39.43
2022-12-10T11:52:00,axn,39.19
2022-12-10T11:53:00,axn,39.76
2022-12-10T11:54:00,axn,39.41
2022-12-10T11:55:00,axn,38.69
2022-12-10T11:56:00,axn,38.67
2022-12-10T11:57:00,axn,38.73
2022-12-10T11:58:00,axn,39.11
2022-12-10T11:59:00,axn,39.12
2022-12-10T12:00:00,axn,39.73
2022-12-10T12:01:00,axn,39.50
2022-12-10T12:02:00,axn,39.52
2022-12-10T12:03:00,axn,39.31
2022-12-10T12:04:00,axn,39.60
2022-12-10T12:05:00,axn,39.77
2022-12-10T12:06:00,axn,39.44
2022-12-10T12:07:00,axn,39.66
2022-12-10T12:08:00,axn,39.32
2022-12-10T12:09:00,axn,39.61
2022-12-10T12:10:00,axn,39.40
2022-12-10T12:11:00,axn,39.44
2022-12-10T12:12:00,axn,39.78
2022-12-10T12:13:00,axn,39.73
2022-12-10T12:14:00,axn,39.96
2022-12-10T12:15:00,axn,39.48
2022-12-10T12:16:00,axn,40.22
2022-12-10T12:17:00,axn,40.13
2022-12-10T12:18:00,axn,40.28
2022-12-10T12:19:00,axn,39.76
2022-12-10T12:20:00,axn,39.40
2022-12-10T12:21:00,axn,39.34
2022-12-10T12:22:00,axn,39.89
2022-12-10T12:23:00,axn,39.47
2022-12-10T12:24:00,axn,39.45
2022-12-10T12:25:00,axn,39.33
2022-12-10T12:26:00,axn,39.14
2022-12-10T12:27:00,axn,39.25
2022-12-10T12:28:00,axn,39.78
2022-12-10T12:29:00,axn,39.88
2022-12-10T12:30:00,axn,39.61
2022-12-10T12:31:00,axn,39.68
2022-12-10T12:32:00,axn,40.14
2022-12-10T12:33:00,axn,39.54
2022-12-10T12:34:00,axn,39.83
2022-12-10T12:35:00,axn,39.84
2022-12-10T12:36:00,axn,40.29
2022-12-10T12:37:00,axn,39.93
2022-12-10T12:38:00,axn,50.39
2022-12-10T12:39:00,axn,50.82
2022-12-10T12:40:00,axn,50.85
2022-12-10T12:41:00,axn,51.15
2022-12-10T12:42:00,axn,51.31
2022-12-10T12:43:00,axn,40.92
2022-12-10T12:44:00,axn,40.88
2022-12-10T12:45:00,axn,40.37
2022-12-10T12:46:00,axn,41.14
2022-12-10T12:47:00,axn,41.00
2022-12-10T12:48:00,axn,40.56
2022-12-10T12:49:00,axn,40.42
2022-12-10T12:50:00,axn,40.73
2022-12-10T12:51:00,axn,40.36
2022-12-10T12:52:00,axn,41.00
2022-12-10T12:53:00,axn,41.00
2022-12-10T12:54:00,axn,41.14
2022-12-10T12:55:00,axn,41.65
2022-12-10T12:56:00,axn,41.10
2022-12-10T12:57:00,axn,41.03
2022-12-10T12:58:00,axn,41.48
2022-12-10T12:59:00,axn,41.30
2022-12-10T13:00:00,axn,41.54
2022-12-10T13:01:00,axn,47.20
2022-12-10T13:02:00,axn,50.07
2022-12-10T13:03:00,axn,49.79
2022-12-10T13:04:00,axn,44.33
2022-12-10T13:05:00,axn,44.77
2022-12-10T13:06:00,axn,41.60
2022-12-10T13:07:00,axn,41.43
2022-12-10T13:08:00,axn,41.78
2022-12-10T13:09:00,axn,41.59
2022-12-10T13:10:00,axn,41.52
2022-12-10T13:11:00,axn,41.79
2022-12-10T13:12:00,axn,41.72
2022-12-10T13:13:00,axn,41.90
2022-12-10T13:14:00,axn,41.77
2022-12-10T13:15:00,axn,41.44
2022-12-10T13:16:00,axn,41.57
2022-12-10T13:17:00,axn,41.87
2022-12-10T13:18:00,axn,41.56